Location: Skalnate Pleso
(49.1889°N, 20.2450°E)
Time: 00:53:33
(UTC+01:00)

Cosmos 1605 Rocket - Pass Details

Date: 01 March 2020
Orbit: 944 x 1007 km, 82.9° (Epoch: 28 March)

Event Time Altitude Azimuth Distance (km) Brightness Sun altitude
Rises 03:32:01 0° 345° (NNW) 3,663 7.1 -27.9°
Reaches altitude 10° 03:34:42 10° 338° (NNW) 2,704 6.3 -27.5°
Enters shadow 03:36:56 22° 326° (NW) 1,981 5.5 -27.2°
